Flag for Liechtenstein Weather past 2 weeks in Vaduz, Liechtenstein

Now
30 °F

Chilly.


Feels Like: 26 °F
Forecast: 25 / 38 °F
Wind: 3 mph from Southeast

Location: Vaduz

Current Time: Feb 1, 2015 at 5:48:46 AM

Latest Report: Feb 1, 2015 at 5:00 AM


Visibility: N/A

Pressure: 29.26 "Hg

Humidity: 77%

Dew point: 23 °F

Location of VaduzLocation

Historic Weather in Vaduz — Graph

°F

Vaduz temperature yesterday

Maximum temperature yesterday: 38 °F (at 2:00 PM)
Minimum temperature yesterday: 30 °F (at 8:00 AM)
Average temperature yesterday: 33 °F

Past Weeks' High & Low Weather Summary

 TemperatureHumidityPressure
High47 °F (Jan 30, 1:00 AM)98% (Jan 17, 9:00 AM)30.48 "Hg (Jan 17, 9:00 AM)
Low28 °F (Jan 26, 9:00 AM)35% (Jan 30, 1:00 AM)28.79 "Hg (Jan 30, 1:00 AM)
Average34 °F81%29.91 "Hg
* Reported Jan 17 4:00 AM — Feb 1 4:00 AM, Vaduz, Weather by CustomWeather, © 2014

Note: Actual official high and low records may vary slightly from our data, if they occured in-between our weather recording intervals... More about our weather records

Advertising

Vaduz weather history for previous 24 hours

 ConditionsComfort  
Time TempWeatherWind HumidityBarometerVisibility
4:00 AM
Feb 1
31 °FLight snow. Low clouds.3 mph79%29.26 "Hg3 mi
3:00 AM32 °FChilly.5 mph73%29.26 "HgN/A
2:00 AM32 °FChilly.3 mph79%29.26 "HgN/A
1:00 AM32 °FLight snow. Low clouds.6 mph83%29.26 "Hg3 mi
12:00 AM31 °FChilly.3 mph86%29.26 "HgN/A
11:00 PM
Jan 31
30 °FChilly.1 mph88%29.26 "HgN/A
10:00 PM31 °FFog.No wind88%29.26 "Hg5 mi
9:00 PM31 °FChilly.2 mph83%29.23 "HgN/A
8:00 PM33 °FChilly.No wind78%29.23 "HgN/A
7:00 PM34 °FFog.1 mph78%29.21 "Hg5 mi
6:00 PM33 °FChilly.1 mph81%29.18 "HgN/A
5:00 PM35 °FChilly.1 mph68%29.15 "HgN/A
4:00 PM35 °FOvercast.2 mph72%29.15 "Hg6 mi
3:00 PM37 °FChilly.3 mph61%29.12 "HgN/A
2:00 PM38 °FChilly.3 mph48%29.12 "HgN/A
1:00 PM36 °FPartly sunny.5 mph55%29.12 "Hg6 mi
12:00 PM35 °FChilly.5 mph59%29.15 "HgN/A
11:00 AM33 °FChilly.6 mph63%29.15 "HgN/A
10:00 AM31 °FPartly sunny.6 mph71%29.15 "Hg6 mi
9:00 AM30 °FChilly.5 mph83%29.18 "HgN/A
8:00 AM30 °FChilly.3 mph90%29.18 "HgN/A
7:00 AM30 °FChilly.2 mph91%29.15 "HgN/A
6:00 AM31 °FChilly.1 mph85%29.12 "HgN/A
5:00 AM30 °FChilly.3 mph94%29.12 "HgN/A
Weather by CustomWeather, © 2014

See weather overviewHow to use our weather pages